Tracking 28790 objects as of 19-Apr-2024
HD Live streaming from Space Station
objects crossing your sky now

BEIDOU G6

Track BEIDOU G6 now!
BEIDOU G6 is classified as:


NORAD ID: 38953
Int'l Code: 2012-059A
Perigee: 35,747.2 km
Apogee: 35,838.7 km
Inclination: 2.4 °
Period: 1,436.1 minutes
Semi major axis: 42163 km
RCS: 8.3985 m2 (large)
Launch date: October 25, 2012
Source: People's Republic of China (PRC)
Launch site: Xichang Space Center, China (XSC)

BEIDOU G6 it the 16th satellite part of China's Beidou navigation system.
Your satellite tracking list
Your tracking list is empty




NASA's NSSDC Master Catalog

Two Line Element Set (TLE):
1 38953U 12059A   24109.56976417 -.00000179  00000-0  00000-0 0  9994
2 38953   2.4086  80.8595 0010852 305.6730 109.7716  1.00274600 41999
Source of the keplerian elements: AFSPC